Weather History for KRYT - October, 2012

Change the Weather History Date:

Wednesday, October 24, 2012

  Actual Average (KHGR) Record (KHGR)
Temperature  
Mean Temperature 72 °F -  
Max Temperature 82 °F 59 °F 82 °F (2001)
Min Temperature 61 °F 41 °F 32 °F (1997)
Cooling Degree Days 6    
Growing Degree Days 22 (Base 50)    
Moisture  
Dew Point 53 °F    
Average Humidity 55    
Maximum Humidity 78    
Minimum Humidity 35    
Precipitation  
Precipitation 0.01 in - - ()
Sea Level Pressure  
Sea Level Pressure 30.07 in    
Wind  
Wind Speed 1 mph (SW)    
Max Wind Speed 8 mph    
Max Gust Speed -    
Visibility 10 miles    
Events      
Averages and records for this station are not official NWS values.
T = Trace of Precipitation, MM = Missing Value Source: NWS Daily Summary

Daily Weather History Graph

Daily Weather History Graph

Search for Another Location

Airport or City:

Trip Planner

Search our weather history database for the weather conditions in past years. The results will help you decide how hot, cold, wet, or windy it might be!

Date:

Astronomy

Oct. 24, 2012 Rise Set
Actual Time 7:29 AM EDT 6:17 PM EDT
Civil Twilight 7:02 AM EDT 6:44 PM EDT
Nautical Twilight 6:30 AM EDT 7:16 PM EDT
Astronomical Twilight 5:59 AM EDT 7:47 PM EDT
Moon 3:31 PM EDT (10/24) 2:23 AM EDT (10/24)
Length of Visible Light 11h 42m
Length of Day
10h 47m
Waxing Gibbous, 76% of the Moon is Illuminated
Oct 24
Waxing Gibbous
Oct 29
Full
Nov 6
Last Quarter
Nov 13
New
Nov 20
First Quarter

Hourly Weather History & Observations

Time (EDT) Temp. Heat Index Dew Point Humidity Pressure Visibility Wind Dir Wind Speed Gust Speed Precip Events Conditions
12:53 AM 62.1 °F - 53.1 °F 72% 30.06 in 10.0 mi Calm Calm - N/A   Clear
1:53 AM 62.1 °F - 53.1 °F 72% 30.06 in 10.0 mi Calm Calm - N/A   Clear
2:53 AM 62.1 °F - 53.1 °F 72% 30.05 in 10.0 mi Calm Calm - N/A   Clear
3:53 AM 62.1 °F - 53.1 °F 72% 30.05 in 10.0 mi Calm Calm - N/A   Clear
4:53 AM 66.9 °F - 53.1 °F 61% 30.05 in 10.0 mi Calm Calm - N/A   Clear
5:53 AM 66.9 °F - 53.1 °F 61% 30.06 in 10.0 mi Calm Calm - N/A   Clear
6:53 AM 66.9 °F - 52.0 °F 59% 30.08 in 10.0 mi Calm Calm - N/A   Clear
7:53 AM 61.0 °F - 53.1 °F 75% 30.10 in 10.0 mi Calm Calm - N/A   Clear
8:53 AM 63.0 °F - 55.9 °F 78% 30.11 in 10.0 mi Calm Calm - N/A   Clear
9:53 AM 73.9 °F - 54.0 °F 50% 30.11 in 2.5 mi Calm Calm - 0.01 in   Haze
10:03 AM 73.4 °F - 55.4 °F 53% 30.13 in 10.0 mi Calm Calm - N/A   Mostly Cloudy
10:53 AM 75.9 °F - 55.9 °F 50% 30.10 in 10.0 mi Calm Calm - N/A   Mostly Cloudy
11:53 AM 77.0 °F - 53.1 °F 43% 30.09 in 10.0 mi Variable 3.5 mph - N/A   Overcast
12:53 PM 80.1 °F 79.9 °F 53.1 °F 39% 30.08 in 10.0 mi Variable 6.9 mph - N/A   Overcast
1:53 PM 80.1 °F 79.9 °F 53.1 °F 39% 30.06 in 10.0 mi West 8.1 mph - N/A   Partly Cloudy
2:53 PM 82.0 °F - 52.0 °F 35% 30.04 in 10.0 mi Variable 3.5 mph - N/A   Partly Cloudy
3:53 PM 81.0 °F - 52.0 °F 36% 30.04 in 10.0 mi Variable 5.8 mph - N/A   Scattered Clouds
4:53 PM 81.0 °F - 51.1 °F 35% 30.04 in 10.0 mi SW 4.6 mph - N/A   Partly Cloudy
5:53 PM 75.9 °F - 54.0 °F 46% 30.05 in 10.0 mi Calm Calm - N/A   Mostly Cloudy
6:53 PM 73.0 °F - 53.1 °F 49% 30.06 in 10.0 mi Calm Calm - N/A   Overcast
7:53 PM 71.1 °F - 53.1 °F 53% 30.09 in 10.0 mi Calm Calm - N/A   Mostly Cloudy
8:53 PM 69.1 °F - 54.0 °F 58% 30.09 in 10.0 mi Calm Calm - N/A   Overcast
9:53 PM 70.0 °F - 53.1 °F 55% 30.09 in 10.0 mi SW 3.5 mph - N/A   Overcast
10:53 PM 66.9 °F - 53.1 °F 61% 30.09 in 10.0 mi Calm Calm - N/A   Overcast
11:53 PM 70.0 °F - 54.0 °F 57% 30.09 in 10.0 mi SW 3.5 mph - N/A   Overcast